Wind_Speed
72 71 70 71 75 77 76 75 72 69 68 67 66 65 63 62 59 57 56 56 55 48 41 41 44 44 43 43 40 39 38 35 32 30 28 23 20 20 17 15 12 8 5 6 8 7 5 8 7 6 8 10 11 11 13 15 16 15 15 15 15 15 16 15 12 11 13 15 16 16 17 17 17 17 17 17 17 18 19 20 20 20 21 22 23 24
74 73 73 73 75 76 77 77 74 71 70 69 68 67 66 64 63 61 59 58 58 53 45 40 42 44 44 43 40 38 36 35 34 32 28 23 21 20 17 16 15 11 7 7 10 10 7 9 8 6 7 9 10 11 12 14 15 14 14 14 14 14 14 14 12 9 10 12 14 15 16 16 16 16 16 16 15 16 17 17 18 18 19 21 22 23
75 75 76 76 75 74 76 79 77 74 71 70 70 70 68 67 66 64 63 62 61 59 52 45 42 44 44 43 41 38 36 34 34 32 28 24 23 21 18 18 17 14 10 9 10 10 9 9 8 5 7 9 9 10 12 13 14 13 13 14 15 13 13 13 12 9 7 9 11 13 15 15 15 15 15 15 14 14 15 15 16 17 18 19 20 21
78 78 79 79 77 75 76 79 79 76 74 73 72 71 70 69 68 67 66 65 64 62 58 52 48 47 45 44 42 39 37 36 36 33 28 27 26 23 19 20 19 15 12 12 11 10 9 9 7 5 7 8 9 11 12 12 13 12 12 13 15 14 12 11 11 9 6 7 9 11 13 14 15 15 15 15 14 13 13 14 15 15 16 16 17 18
81 82 82 81 79 78 77 78 79 78 77 76 75 73 72 71 71 70 68 66 65 64 62 58 54 51 48 46 44 42 39 38 38 35 30 29 30 27 23 21 20 16 14 14 14 12 10 9 8 4 6 8 8 11 12 11 11 12 11 12 14 15 13 10 10 8 5 6 8 9 11 13 13 14 14 14 14 13 12 12 13 14 15 15 16 17
83 84 83 82 81 80 79 79 78 77 79 79 77 75 74 74 73 72 70 69 67 66 65 62 58 56 53 49 47 44 41 39 39 37 34 33 33 31 27 23 20 18 17 17 17 16 13 12 11 8 5 8 10 12 13 11 10 11 10 11 13 14 13 11 9 7 5 4 5 7 8 10 12 12 12 13 12 12 11 10 11 12 13 14 15 17
85 85 85 84 82 82 81 80 78 77 78 80 81 78 76 75 75 74 73 72 71 69 68 65 61 59 57 53 51 47 44 42 40 38 36 37 36 33 30 27 23 21 20 20 19 19 17 15 15 14 11 13 14 13 13 10 8 9 9 10 12 12 13 12 9 6 4 2 4 5 5 7 9 10 11 11 11 10 10 9 10 11 12 13 14 15
86 86 86 85 84 83 82 82 80 78 78 80 82 81 78 78 78 77 76 75 73 71 70 67 63 62 60 57 55 52 48 45 41 37 35 37 38 35 31 28 26 24 23 21 20 20 19 17 18 18 17 19 16 11 11 9 6 7 8 9 11 11 12 12 11 7 4 3 3 4 4 4 5 7 8 9 9 9 9 8 8 9 10 11 12 13
86 87 87 87 86 84 83 84 83 80 78 79 81 82 81 80 80 78 77 77 74 72 72 69 65 63 62 60 58 55 52 48 44 40 37 36 37 36 32 29 28 27 25 23 22 22 20 19 20 19 16 16 12 8 10 8 6 7 7 8 10 10 11 12 12 9 6 5 4 4 3 2 2 4 6 7 8 8 8 7 7 7 8 9 10 11
86 87 88 88 87 86 86 86 85 82 81 81 82 83 83 82 82 80 79 78 77 74 73 71 68 65 63 62 60 58 55 53 49 44 42 40 37 36 34 32 32 30 28 28 26 23 21 20 20 16 13 13 10 8 10 7 6 7 6 7 9 9 11 12 12 11 9 8 7 6 4 2 1 1 2 4 6 6 6 6 6 6 6 7 8 9
86 86 88 88 88 88 88 88 87 84 84 85 83 82 82 83 83 82 81 80 78 76 74 73 70 67 65 64 62 60 59 57 54 50 47 45 42 38 35 33 33 31 29 28 27 25 23 21 19 17 15 15 14 11 11 10 8 6 5 6 8 10 11 11 12 12 12 11 10 8 6 4 3 3 2 2 3 4 5 5 5 4 4 5 6 7
88 87 86 87 88 89 90 90 88 86 87 86 85 83 82 82 84 84 83 81 79 77 75 74 72 70 67 66 64 62 61 60 57 54 52 50 47 44 40 37 36 32 28 27 25 24 24 23 21 20 19 19 17 13 13 13 10 7 7 7 9 11 12 12 12 12 12 13 12 11 8 6 4 4 4 3 1 1 2 3 3 3 3 3 4 5
91 89 88 88 89 91 91 91 89 88 87 87 86 84 82 82 84 85 85 82 79 78 77 75 74 71 69 67 65 64 63 62 60 57 55 53 51 49 47 46 43 37 32 30 27 25 25 25 24 22 21 20 17 13 13 13 11 11 11 11 12 12 13 14 13 13 13 13 13 13 10 8 6 5 6 5 4 2 1 1 1 2 2 2 2 3
95 93 91 91 92 92 91 90 89 88 88 87 87 86 84 83 83 83 83 82 81 81 80 79 76 74 72 69 66 65 65 64 63 61 58 56 54 52 51 51 48 44 39 35 33 30 27 26 25 26 23 19 17 15 14 13 14 16 17 16 15 14 14 15 15 14 13 13 14 14 12 9 7 7 7 7 6 5 3 2 1 1 1 1 1 1
98 97 95 94 94 93 92 91 90 90 89 88 88 88 86 86 84 82 82 81 82 83 83 81 79 77 75 72 69 67 66 65 64 63 62 60 57 55 54 54 50 47 45 42 39 37 33 28 27 29 27 21 18 18 18 17 17 18 19 19 18 16 15 16 16 15 14 13 13 14 12 9 7 8 8 8 8 7 6 5 4 3 2 1 1 1
99 100 99 97 95 94 94 93 91 90 90 90 90 90 88 87 86 84 82 81 82 84 85 82 79 77 76 75 73 70 68 67 66 65 64 63 61 59 57 57 54 50 48 46 44 41 38 34 31 31 30 25 21 20 19 19 20 20 20 20 20 17 16 16 17 17 15 14 14 13 12 8 6 7 9 10 10 9 8 8 7 6 4 3 3 3
99 100 100 97 94 93 93 93 92 91 90 90 91 90 90 90 89 87 84 82 82 84 85 83 80 78 77 77 76 73 72 70 69 67 66 65 64 62 60 59 57 54 51 49 46 43 41 39 36 33 30 26 24 23 21 20 22 22 21 20 20 17 16 17 18 18 16 16 15 14 11 8 6 6 8 10 10 10 10 10 10 9 7 6 5 4
97 99 99 97 95 92 91 91 91 92 91 90 91 92 93 92 91 89 87 84 83 83 84 84 82 79 78 78 77 76 75 72 70 68 67 67 66 65 64 62 60 58 54 51 49 46 44 43 38 34 31 28 27 26 23 21 23 24 23 21 20 18 17 18 18 17 16 16 16 14 12 9 6 5 7 9 10 11 11 12 12 11 10 9 7 6
95 96 97 97 96 93 91 90 90 91 92 91 93 95 96 94 92 90 89 86 85 84 83 83 82 80 77 77 77 77 76 72 70 70 69 68 68 67 66 64 62 60 57 54 52 48 45 43 39 33 31 30 26 25 24 22 23 26 26 24 22 20 20 19 17 15 14 15 15 14 13 12 8 5 5 7 9 11 12 13 14 13 12 11 10 9
94 95 95 96 97 96 94 92 91 90 91 93 94 96 96 95 93 92 90 88 87 86 83 82 81 78 76 76 77 76 74 66 63 69 72 71 70 68 66 65 64 62 60 58 54 48 43 39 36 34 33 30 26 26 29 27 27 29 27 25 25 24 23 20 15 12 12 13 14 14 14 12 10 8 7 8 9 11 12 14 14 14 14 13 12 12
92 93 94 96 98 98 96 95 93 91 92 93 95 97 98 97 95 93 91 90 88 87 85 83 81 78 76 76 75 76 75 66 58 63 71 73 72 69 64 62 64 64 62 61 57 52 46 41 39 39 37 32 29 32 33 30 29 29 27 26 27 26 24 19 14 12 10 10 12 14 14 12 9 8 9 9 10 12 13 14 15 15 15 15 14 13
90 93 94 96 97 99 98 97 95 93 93 93 95 98 99 99 97 95 94 92 90 88 86 84 82 80 77 75 74 75 75 69 62 62 67 70 72 72 68 62 61 64 64 62 59 54 50 49 47 46 43 37 34 34 32 28 29 29 29 29 29 27 26 22 17 15 11 9 10 14 16 15 12 10 9 10 11 12 13 13 14 15 16 17 17 16
89 92 94 94 96 97 98 98 97 95 93 92 94 96 98 100 99 98 96 95 93 90 88 86 84 82 79 75 73 72 71 70 67 60 57 62 69 73 74 68 62 64 66 64 60 54 50 50 49 48 46 42 40 38 32 29 31 31 31 31 30 28 27 24 20 18 14 11 10 13 17 18 18 17 14 13 13 14 13 13 14 16 16 18 19 18
88 91 92 92 93 95 97 98 98 98 96 95 94 95 97 100 101 100 99 97 95 92 90 88 86 84 82 78 75 72 70 69 70 61 48 50 62 71 75 73 67 63 65 65 63 56 51 50 50 48 46 42 40 38 35 32 33 34 33 31 29 27 26 24 23 22 19 16 15 16 18 19 20 21 21 19 19 18 16 15 16 16 17 18 19 19
86 88 90 92 92 94 97 98 99 100 99 99 98 98 98 100 100 100 100 99 98 95 93 90 88 86 84 83 79 76 72 67 68 70 59 48 53 63 70 74 72 66 63 63 63 62 57 53 50 45 42 40 37 34 35 37 37 35 33 30 27 26 26 27 28 27 24 21 18 18 19 21 20 21 22 23 23 22 19 17 17 18 18 19 19 20
84 86 88 90 92 94 96 99 101 101 101 102 102 101 100 99 99 99 100 100 99 96 94 92 90 88 86 86 83 79 77 69 63 69 72 61 55 59 65 71 74 72 68 63 62 64 63 60 56 50 47 46 43 38 38 39 38 36 33 31 28 27 28 29 28 27 26 25 22 20 21 24 24 22 23 24 24 24 21 19 18 18 19 19 19 20
83 85 87 89 92 94 96 97 100 101 102 102 102 102 102 100 100 99 98 99 99 96 95 93 91 89 88 87 85 82 80 75 68 69 75 73 66 63 65 68 72 74 72 66 62 62 64 63 62 58 55 53 48 44 42 40 37 37 36 32 28 28 29 30 30 29 29 28 28 26 24 26 26 26 26 26 25 25 25 23 21 20 19 20 20 19
82 84 86 88 90 93 95 96 98 100 102 103 103 103 103 102 101 100 98 98 99 98 97 95 92 90 89 88 88 86 83 82 79 75 75 76 71 65 65 68 71 73 74 71 65 62 62 63 62 59 56 53 49 45 43 39 37 38 37 33 29 28 29 31 35 37 35 33 32 32 30 29 29 30 30 28 26 27 27 26 24 22 20 20 21 20
81 83 84 86 88 90 92 94 97 98 100 102 103 103 103 103 102 101 100 99 100 100 99 97 93 92 91 90 88 88 86 85 85 82 79 79 75 69 66 67 69 72 74 74 71 66 63 63 63 61 58 55 53 50 43 36 33 35 37 37 35 34 36 37 39 42 42 40 38 36 36 36 35 35 33 29 28 29 29 27 25 24 23 21 21 21
79 81 82 84 87 89 90 91 93 95 97 99 100 100 102 104 103 102 102 101 101 100 99 97 95 93 92 91 89 89 88 87 88 88 87 85 81 76 71 70 69 70 72 74 74 70 66 63 63 63 61 58 59 58 50 38 33 33 34 37 39 40 42 44 46 46 44 42 41 40 39 40 39 37 35 31 29 30 29 27 26 27 27 25 23 22
77 79 80 82 85 87 88 89 90 91 93 95 97 98 101 104 105 103 103 102 100 100 98 96 96 96 93 92 90 89 89 89 90 93 94 91 86 80 76 74 73 72 71 72 73 72 67 63 61 61 61 60 61 65 63 54 47 41 37 36 36 36 40 44 46 44 41 41 42 42 41 41 40 39 38 35 32 31 30 30 29 28 29 29 26 24
77 77 78 80 83 84 85 87 89 90 91 93 95 97 100 103 105 105 103 103 101 100 98 97 96 96 95 93 92 91 90 91 92 95 96 95 91 85 80 78 77 75 73 72 73 73 69 65 63 61 60 62 63 66 69 68 64 58 51 45 39 35 39 46 47 45 45 44 43 42 42 43 42 41 40 39 37 35 33 33 32 31 31 32 30 26
78 77 77 79 81 83 84 85 87 89 90 92 94 97 99 103 106 105 104 103 102 100 99 98 97 96 95 93 92 92 92 93 95 96 97 96 95 92 88 85 82 80 78 75 74 75 73 69 68 66 64 64 66 68 69 72 73 71 66 61 55 50 51 54 51 49 51 49 44 43 44 45 44 42 41 41 41 40 37 36 35 35 36 36 34 31
81 79 78 79 81 83 84 85 86 88 90 91 93 95 96 100 105 106 104 104 103 102 100 99 97 96 96 95 93 92 93 94 96 96 97 96 95 95 94 90 87 84 82 79 76 76 75 73 72 73 72 70 69 70 71 72 73 74 72 71 68 64 62 61 56 52 51 47 41 40 44 46 47 45 42 42 42 42 41 40 39 40 40 41 39 37
84 82 81 81 82 84 85 86 88 90 91 91 92 92 92 96 102 104 103 103 103 101 101 100 98 96 95 95 95 95 95 96 96 97 97 96 96 96 96 94 91 88 85 82 78 76 77 76 73 73 76 76 75 75 75 75 74 74 74 73 71 69 67 66 61 55 51 47 44 43 45 46 46 46 44 43 44 44 44 44 43 43 43 43 42 40
84 85 85 84 85 86 87 87 89 91 91 91 92 92 92 93 98 102 102 100 100 100 99 98 99 99 97 96 96 97 98 98 98 98 98 97 97 97 97 97 96 94 90 87 83 79 79 78 76 74 74 76 76 76 76 76 76 75 75 74 72 70 68 67 65 60 56 55 56 55 51 46 44 44 43 42 44 47 48 48 47 46 45 44 43 42
79 85 87 88 88 89 88 89 90 90 89 90 92 93 93 93 96 100 102 101 99 97 95 95 96 98 98 97 98 99 100 100 100 99 100 100 99 98 98 98 98 98 96 93 91 87 84 82 81 80 78 77 76 76 76 75 75 74 74 74 73 72 70 69 69 67 65 65 65 62 58 51 45 41 39 36 37 42 45 47 48 47 46 45 44 44
70 79 86 90 91 91 90 90 89 89 89 90 91 92 93 93 95 97 100 101 97 91 90 93 97 98 98 99 100 100 101 101 101 101 101 102 102 101 99 99 99 100 99 98 96 94 91 87 85 84 84 82 80 78 77 76 74 72 72 72 73 73 72 71 72 72 72 72 70 68 65 60 50 40 35 31 33 37 39 40 43 45 46 46 46 45
61 70 79 88 93 94 93 92 90 89 89 89 90 90 91 91 93 94 96 98 96 91 86 84 86 92 97 100 102 103 104 104 105 104 103 103 104 104 103 101 100 100 101 100 100 98 96 92 89 86 86 85 82 81 79 78 76 74 72 70 70 70 71 71 71 71 71 72 71 70 68 64 55 46 42 38 37 39 38 37 38 41 44 47 48 48
54 61 69 79 88 94 96 94 92 90 89 88 89 91 91 90 91 91 92 95 95 93 90 84 81 88 97 102 103 104 106 108 108 106 105 105 105 105 106 105 104 103 103 102 102 101 99 96 93 90 88 87 84 83 81 80 79 77 76 73 71 70 70 70 70 70 70 70 71 72 70 66 61 56 53 49 45 44 44 42 39 40 43 47 50 50
48 54 61 69 78 87 94 96 95 93 91 91 91 93 93 92 90 90 91 93 91 91 94 93 92 95 102 106 107 106 106 107 108 107 107 107 108 108 109 109 108 107 106 105 103 102 100 98 96 95 93 91 88 86 84 83 82 80 79 78 76 74 72 71 70 70 70 70 71 73 73 71 68 66 65 62 58 54 52 52 50 48 50 52 53 52
44 48 54 60 67 76 84 91 95 96 95 95 95 96 95 93 92 92 92 91 90 91 93 96 97 100 103 107 109 108 107 106 107 108 109 109 110 111 111 112 111 110 108 107 105 103 102 100 98 97 96 95 92 89 87 86 84 84 83 81 79 78 76 74 72 70 70 70 71 74 75 74 73 71 71 72 69 62 58 58 58 57 56 56 57 56
41 44 48 53 59 65 73 80 88 94 98 99 99 99 98 97 96 95 94 92 92 93 94 96 98 101 103 105 107 108 108 107 106 108 110 111 111 112 113 113 113 112 110 108 107 105 103 102 100 99 98 97 95 93 90 89 87 87 86 84 82 81 80 78 76 74 72 71 71 72 76 77 76 74 73 73 71 66 62 61 61 60 58 58 58 59
40 43 46 49 53 58 63 69 76 84 92 99 102 102 102 101 99 97 95 94 94 94 94 95 97 100 102 103 104 105 107 108 107 108 110 111 112 114 115 115 114 113 112 110 109 107 105 103 102 102 101 99 97 95 93 92 91 90 89 87 86 84 83 81 79 77 77 76 74 73 74 77 78 78 76 75 72 68 65 64 63 62 62 60 59 59
39 42 45 48 50 53 57 62 67 74 82 90 97 102 104 104 103 101 98 97 96 96 95 96 97 99 100 101 102 103 105 107 108 108 110 112 114 114 115 115 115 114 114 113 112 110 108 106 104 104 103 102 100 98 96 95 94 93 92 91 89 88 87 85 83 81 80 80 79 77 76 77 79 80 80 79 76 72 69 67 66 65 64 64 63 61
37 40 44 47 49 52 54 58 61 66 72 78 85 93 99 103 104 104 102 100 99 98 97 97 97 99 100 101 102 103 104 107 109 110 111 113 114 115 115 115 114 115 116 116 115 114 111 109 107 106 106 104 103 101 99 98 98 96 95 94 94 92 91 90 88 86 85 83 82 81 80 79 80 82 83 82 81 78 75 72 70 69 68 67 66 65
35 39 42 45 49 51 53 55 57 61 66 71 76 82 88 94 99 102 103 103 102 101 99 98 98 98 100 101 102 103 104 106 109 111 112 113 114 115 115 115 115 115 115 115 116 116 114 112 111 109 108 107 105 104 102 101 101 100 100 99 98 97 95 94 92 91 89 87 85 84 83 82 83 84 85 85 84 83 80 78 76 74 72 71 70 70
34 37 40 43 47 51 53 54 56 59 62 66 71 75 80 85 90 95 100 103 105 104 102 100 100 100 100 102 103 104 105 106 107 110 112 114 115 116 116 116 116 116 116 116 116 117 116 115 114 113 111 110 109 107 106 105 104 103 103 103 101 100 99 97 96 95 93 92 90 88 86 86 85 86 87 87 87 86 85 83 81 79 78 76 75 74
35 37 39 42 45 49 52 54 57 59 61 63 66 70 74 78 83 87 92 97 101 104 105 104 103 103 102 102 103 104 106 107 108 109 112 113 114 115 116 117 118 119 119 119 119 118 117 116 115 115 114 113 112 111 110 109 107 106 105 105 104 103 102 101 100 99 98 96 95 93 91 90 89 88 88 89 89 88 88 87 85 83 82 81 81 80
37 39 41 42 45 47 50 53 56 58 61 63 65 67 70 73 77 81 85 90 94 98 102 104 105 105 104 104 104 104 105 107 108 109 111 112 113 114 116 118 120 121 121 121 121 121 120 118 117 116 116 116 116 115 114 112 110 108 107 106 106 105 105 105 104 103 102 101 99 98 96 94 93 92 91 91 91 91 90 90 89 87 85 84 83 83
39 40 42 43 45 47 49 52 54 57 60 62 64 67 69 71 73 77 81 85 88 91 95 99 101 103 105 106 106 106 105 106 107 109 110 112 114 115 116 118 120 121 121 122 122 123 122 121 119 119 118 118 118 118 116 115 114 112 110 109 108 107 107 107 107 106 105 105 104 102 101 99 97 96 94 93 93 93 92 92 91 90 88 86 84 83
Wind_Direction
220 220 220 220 221 220 220 220 219 217 216 215 215 216 217 217 217 216 214 216 216 215 218 217 215 214 213 215 217 219 221 222 224 231 239 245 253 252 241 224 196 177 221 278 303 302 336 349 351 8 13 14 13 16 19 15 13 13 12 15 27 41 42 40 44 45 47 50 52 51 50 51 54 55 56 59 61 61 61 58 55 51 50 51 52 53
219 219 220 221 221 220 220 221 220 218 217 216 216 217 217 217 217 217 216 217 217 215 218 218 217 216 216 218 220 222 223 223 224 229 238 244 247 241 228 216 198 180 210 258 285 285 299 325 331 351 7 12 14 15 16 11 8 6 6 6 14 31 42 43 46 49 42 45 49 50 50 52 54 55 56 59 63 64 64 62 59 55 51 51 52 53
219 219 220 221 222 221 220 221 220 219 218 217 217 217 217 217 218 218 218 216 215 216 218 220 221 221 221 222 222 224 224 223 225 228 236 239 236 231 224 223 211 189 199 243 267 269 276 303 319 339 356 3 5 7 8 4 3 1 360 359 1 15 33 42 47 52 39 34 41 45 48 49 52 54 54 57 63 67 67 66 64 59 54 53 53 55
219 219 220 220 221 221 221 221 220 219 218 218 218 217 217 219 220 220 219 217 214 215 218 220 223 223 223 223 223 225 225 224 224 226 229 231 230 230 229 231 223 198 197 230 255 262 263 286 306 333 351 355 355 358 360 358 359 359 356 353 354 1 17 33 44 52 40 24 31 38 43 47 48 50 51 52 56 63 68 68 68 65 60 57 56 56
219 219 220 220 220 221 221 221 220 218 219 219 219 217 217 219 221 221 220 219 217 217 218 219 221 222 223 223 223 225 226 226 226 224 220 221 229 234 234 234 229 212 204 223 247 257 253 266 279 302 354 356 349 353 357 355 355 356 353 349 349 353 1 16 37 48 41 17 22 32 41 46 49 50 49 49 51 55 62 66 68 68 64 61 57 55
220 220 220 220 220 221 222 222 220 218 219 220 219 218 217 219 221 222 221 221 220 219 220 220 220 221 222 222 223 224 225 227 228 227 220 217 226 235 236 234 228 218 212 220 240 251 247 248 258 269 318 347 340 339 346 348 348 350 349 344 344 349 354 0 20 39 39 11 10 22 38 48 51 53 53 51 50 50 54 59 62 64 63 60 55 52
220 220 220 220 220 220 222 223 222 219 219 220 220 219 217 219 221 221 221 222 221 219 219 220 220 221 221 222 223 224 225 226 227 227 224 220 223 229 232 231 227 223 220 217 229 247 251 247 252 259 274 309 322 324 332 338 339 343 343 339 340 346 350 352 360 18 29 2 349 7 28 48 54 58 59 58 56 52 53 56 58 60 61 59 55 51
221 221 220 220 220 220 221 222 222 220 219 220 220 219 218 219 221 221 221 223 223 220 219 220 221 221 222 221 222 223 224 226 226 225 223 223 222 222 227 232 230 225 222 220 226 240 249 250 251 252 264 291 307 313 321 328 327 331 333 330 333 339 344 346 347 351 354 337 320 342 9 35 53 61 64 67 64 58 55 56 60 64 63 62 59 55
220 221 221 220 220 220 220 221 222 221 220 221 221 220 218 218 220 221 221 223 223 222 221 221 221 222 223 222 222 223 223 224 225 222 220 222 224 225 228 234 233 228 227 230 234 237 242 247 248 249 265 287 300 311 316 318 322 324 322 321 324 330 337 341 340 336 329 317 308 317 343 359 27 50 60 69 72 68 61 58 62 69 70 69 66 61
220 221 221 221 220 220 220 221 221 220 221 222 222 220 218 219 220 220 221 223 223 223 222 221 221 222 223 223 222 222 223 224 225 225 223 223 227 232 233 233 233 233 233 236 238 236 239 247 247 247 264 280 289 310 311 304 315 326 319 312 315 319 327 334 334 329 322 314 305 306 319 317 292 335 29 61 76 76 69 62 61 70 76 76 74 70
219 220 221 221 221 220 220 221 221 220 220 222 221 220 219 219 220 220 220 221 223 223 223 222 222 223 224 224 222 223 224 225 226 227 228 228 229 231 232 230 230 233 233 235 238 237 241 251 248 241 246 260 272 293 303 295 300 323 324 306 306 310 316 324 328 325 318 313 307 302 309 308 276 271 302 3 66 81 79 71 62 66 76 79 80 76
219 219 219 221 221 221 221 221 221 220 221 222 222 221 220 219 220 220 220 221 222 223 224 224 224 225 226 226 224 223 224 226 227 228 229 230 231 231 231 231 231 232 232 234 239 242 245 247 244 240 240 249 262 282 298 290 281 300 315 306 300 300 305 311 317 319 315 311 307 303 306 309 288 263 270 293 332 66 80 80 70 65 69 78 82 79
218 218 218 218 220 221 222 222 221 221 222 222 222 222 221 221 221 220 219 220 221 223 224 225 225 226 228 227 227 226 225 226 228 230 230 231 232 233 233 235 235 234 234 236 239 244 244 238 236 240 242 248 258 276 294 285 273 288 302 307 301 291 294 301 305 311 311 306 306 304 304 306 297 273 263 273 283 291 320 48 68 66 58 60 78 80
218 218 218 218 218 219 220 221 221 222 222 222 222 222 222 222 222 221 220 220 221 222 223 223 224 225 227 227 228 228 227 227 228 229 230 231 233 234 235 237 237 236 236 238 241 244 242 234 232 235 239 251 263 268 279 275 272 284 291 301 305 289 283 292 297 303 306 303 302 303 303 303 296 280 266 265 270 275 285 293 307 346 18 5 18 67
218 218 218 218 218 218 218 220 220 221 222 222 223 223 223 223 222 221 220 219 221 222 222 222 223 224 225 226 226 227 228 229 230 230 230 231 232 233 235 237 239 238 237 239 242 244 243 238 236 238 243 259 268 260 264 271 275 281 282 291 302 291 278 284 290 293 296 296 298 299 301 303 297 283 270 264 262 264 273 280 286 292 293 299 299 297
218 219 219 219 219 218 218 218 219 220 221 222 223 223 223 224 223 222 220 219 220 223 222 221 222 224 225 226 226 226 227 229 230 231 231 232 232 232 234 236 238 238 238 238 240 243 244 242 241 245 249 258 263 253 256 268 274 278 278 286 298 293 279 280 286 290 290 292 294 294 297 305 305 288 273 267 264 262 266 274 278 281 280 275 273 273
218 219 220 220 220 220 220 219 219 219 220 222 223 223 223 224 223 222 221 220 221 223 221 220 221 223 225 226 226 226 227 228 229 231 232 233 234 234 234 234 237 238 237 237 238 239 242 241 243 250 252 254 258 256 258 268 274 276 277 284 295 293 284 283 286 291 293 292 292 289 293 306 309 289 276 272 269 266 265 269 274 276 276 274 267 265
220 220 220 220 221 221 221 221 221 220 220 221 223 224 224 224 223 223 222 221 221 223 221 220 220 222 224 226 226 226 227 228 229 231 233 234 235 236 236 235 236 237 237 237 236 236 239 240 244 250 250 253 263 264 263 269 272 271 271 278 287 287 283 282 282 288 292 292 291 288 293 305 305 291 285 277 273 268 266 268 272 275 277 277 272 269
221 221 221 221 221 221 221 222 222 222 221 220 222 224 224 224 223 223 222 221 222 222 221 220 220 221 223 226 227 227 228 229 230 232 233 234 236 237 237 237 236 237 238 237 236 235 237 240 244 249 248 253 261 258 255 263 266 265 267 272 274 273 273 273 273 280 285 284 282 281 290 304 307 304 302 289 278 269 265 269 273 276 278 279 280 277
222 222 222 221 221 221 221 221 222 222 222 221 222 224 225 225 224 224 223 222 222 222 221 221 220 220 222 224 226 227 227 227 231 234 234 234 235 236 238 238 237 237 237 237 237 233 233 237 242 243 243 245 242 235 240 253 257 255 259 266 265 262 267 270 273 282 286 279 272 270 280 295 304 310 314 304 288 273 266 267 274 279 279 280 283 282
221 222 222 222 222 221 221 221 221 221 222 222 222 224 225 225 224 224 224 223 222 222 221 221 220 220 221 222 224 225 225 222 224 233 235 234 234 235 236 237 236 236 237 237 237 234 230 232 235 233 234 236 234 231 236 250 253 245 246 258 263 261 264 270 276 288 297 292 282 280 285 294 302 313 319 313 301 286 274 270 272 278 281 280 280 281
219 220 221 221 221 221 222 222 222 222 223 223 224 225 225 225 225 224 224 223 222 222 221 221 221 221 221 222 223 225 225 221 220 231 237 235 233 233 233 235 236 235 235 235 236 235 233 234 235 234 234 237 237 236 239 249 253 246 244 253 260 259 260 265 271 280 291 296 292 291 295 300 305 309 313 313 305 293 282 276 273 276 278 277 276 276
218 219 220 220 220 221 221 222 222 222 223 224 225 226 226 226 225 224 224 223 222 221 221 221 222 222 221 221 223 224 225 222 219 226 237 238 235 233 232 233 236 236 235 234 234 234 235 238 238 236 235 235 237 238 240 244 248 248 248 252 255 256 258 262 265 268 270 272 280 286 288 294 297 296 298 302 300 292 282 274 271 271 273 274 272 269
218 219 219 219 219 220 220 220 221 221 221 222 223 224 225 226 226 225 224 224 222 221 221 220 220 221 221 220 221 222 223 222 219 219 229 238 237 234 231 230 233 235 234 234 232 230 231 235 238 238 237 236 237 237 235 235 238 242 245 250 256 261 264 266 265 263 261 261 272 281 280 282 285 286 288 292 293 293 287 277 269 264 265 269 268 265
217 218 219 218 218 219 219 219 219 220 220 221 222 223 224 225 226 226 226 225 223 221 220 220 220 220 221 220 220 220 220 220 219 217 219 227 233 233 230 228 229 231 233 234 233 229 226 228 231 234 232 228 229 231 228 227 230 233 237 243 251 260 265 266 266 265 263 260 265 271 265 263 271 278 280 284 288 290 289 283 275 268 266 269 270 268
216 217 218 218 218 218 219 219 219 219 220 221 222 222 223 224 224 225 226 226 225 223 221 220 219 220 221 220 220 220 219 216 216 218 219 222 229 232 230 228 228 230 233 234 232 230 227 226 226 226 225 223 225 227 226 224 225 228 233 237 238 243 250 256 260 264 264 261 263 264 254 253 264 271 269 273 280 283 284 284 279 270 266 269 272 273
214 215 216 217 218 218 218 219 220 220 220 221 222 223 223 224 224 224 225 226 226 225 223 222 220 219 221 221 220 220 220 217 215 217 219 221 227 231 230 228 228 229 230 231 230 229 228 228 228 228 228 226 225 223 222 222 224 227 232 236 235 235 240 246 250 254 259 263 265 264 254 252 262 266 263 265 272 277 281 283 280 272 265 265 268 271
214 214 215 216 218 219 218 218 219 220 221 221 222 223 224 224 224 224 225 226 226 226 225 223 222 221 221 222 221 220 221 220 219 219 220 220 223 226 228 227 227 227 227 228 229 229 228 228 228 227 227 225 219 214 214 218 222 226 229 232 233 231 230 235 240 245 252 259 263 263 256 252 256 259 260 263 265 268 276 280 277 273 270 267 266 270
214 214 214 215 217 218 219 219 219 220 221 221 222 223 224 224 225 224 224 225 225 225 225 224 222 222 222 222 222 222 221 221 221 221 222 222 221 222 225 226 225 226 227 228 229 230 230 229 228 227 227 224 218 212 208 211 218 224 227 230 230 229 229 233 240 247 253 256 258 261 259 255 255 255 258 260 259 261 269 275 272 269 271 272 268 267
215 214 214 214 216 217 218 219 219 220 221 222 222 222 223 224 224 224 223 224 224 225 225 224 223 222 222 222 223 223 222 222 222 222 223 223 223 223 224 224 225 226 227 227 228 229 230 230 229 228 228 225 219 213 208 206 210 218 223 227 230 233 236 241 247 251 254 255 255 259 259 257 255 254 253 255 254 256 262 268 268 265 267 270 267 262
215 215 214 215 216 217 217 218 219 219 220 222 222 222 223 224 224 224 224 224 225 225 225 224 224 223 222 222 223 224 224 223 223 224 225 225 224 223 224 224 224 225 226 227 226 226 227 227 226 226 225 221 217 214 212 209 206 207 210 216 222 231 238 243 244 246 250 253 255 257 257 255 253 252 251 251 250 249 251 256 261 263 263 264 262 257
214 215 214 215 217 217 217 218 218 219 219 221 222 222 222 223 224 224 224 224 224 225 225 224 224 223 223 222 222 224 225 225 225 226 227 227 226 224 224 225 225 224 225 227 225 224 224 224 223 221 220 218 215 215 216 214 212 210 211 214 218 227 237 241 241 242 245 249 250 251 252 252 250 249 250 250 248 246 245 247 252 257 259 259 258 255
215 215 215 215 217 217 218 218 219 219 219 220 222 223 222 223 224 224 224 223 223 224 224 224 224 223 223 223 222 223 225 226 227 227 228 229 228 227 226 227 227 226 226 227 227 225 223 223 222 219 218 216 215 215 216 217 218 218 220 223 225 230 235 238 241 244 244 244 246 248 249 249 247 247 248 249 248 246 244 244 246 250 254 255 253 253
215 215 215 216 217 218 217 218 219 220 220 220 222 223 224 224 224 224 223 223 223 223 224 224 223 223 223 223 222 223 224 226 228 228 229 229 230 229 229 229 229 229 227 228 229 228 225 224 222 220 219 218 218 217 217 218 220 222 224 227 229 232 234 236 238 240 240 240 242 244 245 243 243 244 245 246 246 246 245 245 247 249 252 252 250 251
215 214 214 215 217 218 218 218 218 219 220 220 221 223 224 225 225 224 224 223 223 223 224 224 223 222 222 221 221 222 223 225 227 228 229 229 230 230 230 230 229 229 229 228 229 228 226 224 223 222 221 222 222 222 223 223 224 226 227 229 231 232 234 234 234 233 234 233 233 236 239 239 240 242 244 245 247 248 247 247 248 249 250 249 247 248
215 214 214 215 216 218 219 219 219 220 221 221 221 222 222 223 225 225 223 223 223 223 223 224 224 223 222 221 221 221 222 223 225 227 228 229 229 230 230 230 229 229 230 229 229 228 226 225 225 224 223 223 224 225 226 226 227 227 229 229 230 231 231 231 230 228 228 228 229 232 237 239 239 241 245 250 252 251 247 246 246 246 246 244 244 247
214 215 214 215 217 218 219 219 220 221 221 222 223 222 222 222 224 225 224 222 222 222 223 224 224 223 223 222 221 221 222 223 224 226 228 229 229 229 230 230 230 230 230 230 229 229 228 227 227 227 227 226 226 226 227 227 227 228 229 229 230 229 229 228 228 228 229 229 231 234 236 237 238 239 242 249 251 248 245 243 242 242 241 241 243 247
214 215 215 215 217 218 220 221 221 221 221 223 224 225 224 223 224 225 225 223 221 220 222 224 224 223 223 223 222 221 221 222 224 225 226 228 229 229 229 230 230 230 230 230 230 230 230 229 229 229 229 228 228 227 228 228 228 228 229 229 229 229 228 228 228 229 231 233 234 235 235 236 235 230 229 235 237 235 236 239 240 240 241 242 243 246
213 215 215 216 217 218 220 221 222 222 222 223 225 227 226 226 226 226 227 225 222 219 220 222 222 222 223 222 222 222 221 221 222 223 224 226 228 229 230 229 230 231 231 231 231 231 230 230 229 229 229 228 228 228 229 229 230 229 227 227 228 228 228 228 228 229 230 231 231 231 232 231 226 218 215 220 224 224 226 233 238 240 243 244 244 244
214 214 215 216 217 219 220 221 222 223 223 224 225 227 228 227 227 227 228 227 224 221 221 220 219 220 221 220 221 222 222 222 222 223 224 225 227 228 229 230 230 230 230 231 231 231 230 230 229 228 228 228 229 229 230 231 231 230 228 227 227 228 228 229 229 229 229 229 228 227 227 226 221 217 216 218 223 226 224 227 233 236 238 241 242 242
215 215 215 216 217 219 220 221 221 223 224 224 225 227 228 228 227 226 227 227 225 223 222 222 222 222 222 220 220 221 222 223 223 223 224 225 227 227 229 230 230 230 230 231 231 231 231 230 229 229 229 230 230 231 231 231 232 232 231 230 229 229 230 231 231 230 230 229 227 226 227 225 223 225 227 229 233 234 228 226 229 232 235 239 241 242
218 217 217 217 218 219 220 221 222 222 223 224 226 227 229 228 228 227 226 226 225 224 223 223 223 225 225 223 221 221 222 223 224 224 224 225 226 228 229 230 231 231 231 231 231 232 232 231 230 230 230 230 231 231 231 231 232 233 233 233 232 231 231 231 231 231 230 230 228 227 228 228 228 230 232 235 238 237 231 228 229 233 236 240 242 243
222 221 220 219 219 219 220 221 221 222 223 224 226 227 229 229 228 228 226 225 224 224 224 223 224 226 227 225 223 222 223 223 224 225 225 225 226 228 229 230 231 232 232 232 232 232 232 232 232 231 231 231 231 231 231 231 232 232 233 234 234 233 233 231 231 231 231 230 230 229 229 230 231 232 234 235 236 235 232 230 230 232 234 237 240 243
226 225 224 223 221 220 220 220 221 222 222 224 225 227 228 229 230 229 228 227 225 225 225 225 225 226 227 226 225 223 223 223 223 224 226 226 226 227 229 230 231 232 232 232 232 232 232 232 233 232 232 232 231 230 230 231 231 232 233 234 234 235 235 234 232 232 231 231 231 231 231 231 232 233 234 234 234 233 232 231 230 231 233 234 237 240
229 228 228 227 225 223 221 221 221 221 222 223 225 226 228 229 230 230 230 229 227 226 226 226 226 226 226 227 226 225 224 223 223 224 225 226 227 227 228 230 231 231 232 233 233 232 232 232 233 233 233 233 232 231 230 230 231 232 233 234 235 236 236 236 235 233 232 232 232 232 232 232 232 232 233 234 233 233 232 231 231 232 233 235 236 237
234 231 230 230 230 228 225 223 222 222 222 223 224 226 228 229 231 231 231 231 230 228 227 226 227 227 227 226 226 225 224 224 224 224 224 226 227 227 228 229 230 231 232 232 233 233 232 232 233 233 234 234 233 233 232 231 231 232 233 234 235 236 237 237 237 236 234 233 232 232 232 232 232 232 233 234 234 233 233 233 233 233 234 236 237 238
240 237 234 232 232 232 230 228 226 224 224 224 224 225 227 228 230 231 232 233 232 231 230 228 228 228 228 227 226 225 225 225 225 225 225 226 227 227 228 229 230 231 232 232 233 233 232 232 232 233 233 234 234 234 233 233 232 232 232 233 234 235 236 237 238 238 237 235 234 233 233 232 232 233 234 235 235 235 236 236 236 237 237 238 239 239
245 242 238 236 234 233 232 231 230 228 227 226 225 225 226 227 228 230 231 232 233 233 232 230 229 229 229 229 228 227 226 225 225 225 226 226 227 228 228 228 229 230 231 232 232 233 232 232 232 232 233 233 234 234 234 233 233 232 232 232 233 234 236 237 237 238 239 238 237 235 234 233 232 233 234 235 236 237 237 238 239 239 240 240 241 241
248 245 242 239 237 235 234 233 232 231 230 230 229 228 227 227 228 229 230 231 232 233 233 232 231 230 229 229 229 229 228 226 226 226 226 227 227 228 228 229 229 230 231 232 233 233 233 232 232 232 232 233 233 234 234 233 233 233 233 233 233 234 235 236 237 238 239 239 239 238 236 234 233 233 234 235 236 237 238 239 240 241 241 242 243 243
249 247 245 243 240 238 236 234 233 232 231 231 231 231 230 229 228 229 230 231 232 233 233 233 232 231 231 230 230 230 230 229 228 227 227 227 228 228 229 229 229 230 231 232 233 233 234 233 233 232 232 233 233 233 234 234 233 233 233 233 233 234 234 235 236 237 238 238 239 239 238 237 235 234 234 235 236 237 238 239 240 241 242 242 243 244
250 248 247 245 244 242 239 236 234 234 232 231 231 232 233 232 231 230 230 230 231 232 233 234 233 233 232 232 231 231 231 231 230 230 229 228 228 228 229 230 230 231 231 232 233 234 234 234 234 233 233 233 233 234 234 234 234 234 233 233 233 234 234 234 235 236 237 238 238 239 240 239 238 237 235 235 235 237 238 239 240 242 242 242 242 243
Height
10906 10910 10915 10917 10918 10924 10929 10932 10939 10946 10951 10957 10962 10965 10968 10972 10977 10981 10984 10986 10989 10994 10998 11001 11003 11007 11010 11013 11015 11017 11018 11021 11024 11025 11026 11027 11029 11031 11033 11034 11034 11035 11036 11036 11037 11038 11037 11037 11037 11036 11037 11037 11036 11035 11034 11034 11033 11033 11032 11031 11030 11029 11028 11027 11027 11026 11025 11024 11022 11021 11021 11020 11019 11019 11017 11016 11015 11015 11014 11014 11014 11014 11013 11012 11011 11010
10899 10905 10907 10908 10911 10917 10923 10926 10934 10941 10946 10951 10955 10959 10962 10966 10971 10974 10977 10980 10984 10989 10994 10997 11000 11003 11006 11009 11011 11014 11016 11019 11022 11023 11024 11026 11028 11030 11032 11032 11032 11033 11035 11035 11036 11037 11037 11037 11037 11036 11037 11037 11036 11036 11035 11034 11033 11033 11033 11032 11031 11030 11029 11028 11028 11027 11026 11025 11024 11023 11022 11021 11021 11021 11020 11019 11018 11017 11016 11016 11016 11016 11015 11014 11013 11012
10894 10897 10898 10900 10905 10911 10916 10920 10927 10935 10940 10946 10949 10954 10959 10963 10966 10968 10971 10974 10979 10984 10989 10993 10997 10999 11002 11005 11008 11011 11013 11016 11019 11021 11022 11024 11026 11028 11030 11031 11031 11031 11033 11035 11036 11036 11037 11037 11037 11036 11036 11037 11037 11036 11035 11034 11033 11033 11033 11032 11032 11031 11031 11029 11029 11028 11027 11026 11026 11024 11023 11022 11022 11021 11021 11021 11020 11019 11018 11018 11018 11017 11017 11016 11015 11014
10885 10887 10888 10892 10898 10904 10908 10912 10920 10929 10935 10940 10943 10948 10955 10958 10959 10961 10965 10969 10975 10980 10984 10988 10991 10995 10999 11002 11004 11007 11010 11014 11016 11018 11020 11022 11023 11026 11028 11029 11029 11029 11031 11033 11034 11035 11036 11037 11036 11036 11036 11036 11036 11036 11036 11035 11034 11033 11033 11032 11031 11031 11031 11030 11029 11029 11028 11027 11026 11025 11024 11023 11022 11021 11021 11021 11020 11020 11020 11020 11019 11019 11019 11018 11018 11017
10874 10876 10879 10885 10891 10896 10900 10904 10913 10923 10929 10932 10936 10943 10949 10951 10952 10956 10961 10966 10971 10975 10978 10982 10987 10991 10995 10998 11001 11005 11008 11011 11013 11015 11018 11020 11021 11022 11025 11026 11027 11028 11029 11031 11033 11034 11035 11036 11036 11036 11036 11036 11037 11037 11036 11036 11035 11034 11033 11032 11031 11031 11031 11031 11030 11029 11028 11028 11027 11026 11025 11023 11022 11021 11021 11020 11020 11020 11020 11020 11020 11020 11020 11020 11020 11019
10863 10867 10873 10880 10885 10890 10894 10898 10907 10916 10921 10925 10930 10936 10942 10945 10947 10952 10957 10960 10964 10969 10973 10978 10983 10987 10990 10994 10998 11003 11006 11008 11010 11013 11016 11018 11018 11019 11022 11024 11025 11026 11027 11029 11031 11032 11033 11034 11035 11035 11035 11036 11037 11037 11037 11036 11036 11034 11033 11032 11032 11031 11031 11031 11031 11030 11029 11028 11028 11027 11026 11025 11024 11023 11022 11021 11020 11020 11020 11020 11020 11020 11020 11020 11019 11019
10854 10859 10866 10872 10878 10884 10888 10892 10900 10909 10914 10918 10922 10928 10936 10940 10941 10946 10950 10953 10956 10962 10968 10974 10979 10983 10986 10991 10994 10998 11002 11004 11007 11010 11014 11015 11016 11017 11019 11021 11023 11024 11025 11027 11029 11031 11032 11033 11033 11034 11034 11035 11036 11037 11037 11037 11036 11035 11034 11033 11032 11032 11032 11032 11032 11031 11030 11029 11029 11028 11028 11027 11026 11025 11024 11023 11023 11022 11021 11021 11020 11020 11020 11019 11019 11019
10847 10852 10858 10864 10871 10877 10882 10887 10893 10901 10907 10910 10913 10921 10930 10933 10934 10940 10944 10946 10951 10958 10964 10969 10974 10979 10982 10986 10990 10994 10997 11000 11004 11007 11010 11012 11013 11014 11016 11018 11020 11022 11023 11025 11028 11030 11031 11031 11032 11033 11034 11035 11036 11036 11036 11036 11036 11035 11034 11033 11032 11032 11032 11032 11032 11032 11031 11030 11029 11029 11029 11028 11028 11027 11026 11025 11025 11024 11023 11022 11022 11021 11021 11021 11020 11020
10839 10844 10850 10856 10864 10870 10875 10879 10883 10893 10901 10902 10905 10912 10921 10926 10929 10934 10939 10942 10948 10954 10959 10964 10969 10974 10978 10982 10986 10989 10993 10997 11000 11004 11007 11008 11010 11011 11013 11015 11016 11019 11021 11023 11025 11027 11028 11029 11030 11032 11034 11035 11035 11036 11036 11035 11035 11035 11034 11033 11032 11032 11032 11032 11032 11032 11031 11030 11030 11030 11030 11029 11029 11028 11027 11027 11026 11026 11025 11024 11024 11024 11023 11023 11023 11023
10831 10836 10841 10848 10856 10863 10867 10869 10875 10886 10892 10891 10895 10904 10913 10919 10923 10928 10933 10937 10943 10949 10954 10959 10964 10969 10973 10976 10982 10986 10989 10993 10996 11000 11003 11005 11007 11009 11010 11012 11014 11016 11019 11021 11023 11025 11026 11027 11029 11031 11033 11034 11034 11035 11035 11035 11034 11034 11034 11033 11032 11032 11032 11032 11032 11032 11031 11031 11030 11030 11030 11030 11029 11029 11028 11028 11027 11027 11027 11026 11026 11026 11025 11025 11025 11025
10822 10827 10834 10842 10849 10854 10857 10860 10868 10877 10879 10880 10888 10896 10905 10911 10915 10921 10928 10932 10938 10945 10950 10955 10960 10964 10967 10971 10978 10982 10985 10988 10992 10996 11000 11002 11004 11006 11007 11009 11012 11014 11017 11019 11020 11023 11025 11026 11028 11029 11031 11032 11033 11033 11034 11034 11033 11033 11032 11032 11032 11031 11031 11031 11031 11031 11031 11031 11030 11030 11030 11030 11030 11029 11029 11029 11028 11028 11028 11028 11027 11027 11027 11027 11027 11027
10813 10819 10827 10834 10840 10844 10847 10853 10861 10868 10870 10875 10883 10890 10897 10904 10908 10915 10921 10927 10935 10942 10946 10950 10955 10959 10962 10966 10972 10977 10980 10984 10988 10991 10995 10998 11001 11003 11005 11006 11009 11012 11015 11017 11019 11021 11023 11024 11026 11027 11028 11030 11031 11032 11032 11032 11032 11031 11031 11031 11031 11030 11030 11030 11030 11030 11030 11030 11030 11030 11030 11030 11030 11030 11029 11029 11029 11029 11028 11028 11028 11028 11028 11028 11028 11028
10803 10810 10816 10821 10826 10832 10838 10846 10855 10861 10864 10871 10877 10883 10891 10897 10901 10908 10915 10923 10931 10935 10939 10944 10950 10955 10957 10961 10967 10972 10975 10979 10983 10986 10990 10993 10996 10998 11001 11003 11005 11009 11013 11015 11017 11019 11021 11022 11023 11025 11026 11028 11030 11030 11030 11030 11030 11030 11030 11030 11029 11029 11029 11029 11029 11029 11029 11029 11029 11029 11030 11030 11030 11030 11030 11030 11030 11029 11029 11029 11029 11029 11029 11029 11029 11029
10792 10797 10803 10808 10813 10822 10831 10839 10848 10854 10859 10866 10871 10877 10884 10889 10894 10903 10911 10919 10924 10926 10930 10936 10943 10948 10951 10957 10963 10966 10970 10974 10977 10980 10984 10988 10991 10993 10996 10998 11001 11006 11009 11012 11014 11016 11019 11020 11022 11024 11026 11027 11028 11028 11028 11028 11029 11028 11028 11028 11028 11028 11028 11027 11028 11028 11028 11028 11028 11028 11029 11030 11030 11030 11030 11030 11030 11030 11030 11030 11029 11029 11029 11029 11029 11030
10781 10785 10791 10796 10803 10814 10823 10830 10838 10846 10852 10859 10864 10870 10876 10881 10888 10896 10904 10912 10916 10916 10921 10929 10936 10942 10946 10952 10957 10960 10964 10968 10971 10974 10978 10982 10985 10988 10991 10993 10997 11002 11005 11008 11011 11013 11016 11019 11021 11023 11024 11025 11026 11026 11026 11026 11026 11026 11026 11026 11026 11026 11026 11026 11026 11026 11026 11026 11026 11026 11027 11028 11029 11029 11029 11029 11030 11030 11030 11030 11029 11029 11029 11029 11029 11030
10773 10778 10783 10791 10799 10808 10814 10821 10830 10838 10845 10850 10854 10861 10869 10874 10881 10888 10895 10903 10906 10906 10914 10925 10934 10939 10942 10945 10949 10955 10959 10961 10964 10968 10972 10976 10979 10982 10986 10989 10993 10997 11001 11005 11008 11011 11014 11017 11019 11021 11022 11023 11023 11023 11023 11023 11024 11024 11024 11024 11024 11024 11024 11024 11024 11025 11025 11025 11025 11025 11026 11027 11028 11028 11029 11029 11029 11029 11029 11029 11029 11029 11029 11029 11029 11029
10768 10772 10780 10791 10800 10806 10812 10818 10825 10832 10838 10843 10848 10855 10861 10865 10871 10878 10886 10895 10897 10898 10909 10922 10930 10934 10935 10938 10944 10950 10953 10956 10960 10964 10968 10972 10975 10978 10982 10985 10989 10993 10997 11001 11005 11009 11011 11013 11015 11018 11020 11020 11021 11021 11022 11022 11022 11022 11022 11022 11022 11022 11023 11023 11023 11023 11024 11024 11024 11024 11024 11025 11026 11027 11027 11027 11028 11028 11028 11028 11028 11029 11029 11029 11029 11029
10766 10769 10777 10788 10796 10803 10810 10817 10822 10825 10832 10839 10843 10845 10849 10853 10861 10869 10878 10886 10890 10894 10905 10916 10923 10926 10929 10934 10939 10944 10948 10953 10958 10962 10966 10968 10971 10974 10978 10982 10985 10989 10994 10997 11001 11005 11007 11010 11013 11016 11018 11019 11019 11020 11020 11021 11021 11020 11020 11020 11020 11021 11021 11022 11021 11022 11023 11024 11024 11024 11024 11024 11025 11025 11026 11026 11027 11027 11027 11027 11027 11028 11028 11028 11028 11028
10762 10766 10774 10784 10791 10797 10804 10811 10816 10820 10827 10832 10833 10833 10837 10844 10854 10862 10869 10878 10884 10889 10899 10909 10915 10921 10926 10929 10933 10938 10945 10953 10958 10960 10962 10963 10966 10969 10973 10978 10982 10986 10990 10992 10996 11001 11005 11009 11013 11015 11017 11017 11018 11017 11016 11017 11019 11018 11018 11018 11018 11019 11019 11020 11020 11020 11021 11022 11022 11023 11023 11023 11024 11024 11025 11025 11025 11026 11026 11026 11026 11027 11028 11028 11028 11028
10753 10761 10771 10779 10783 10789 10797 10802 10808 10815 10820 10824 10825 10826 10830 10837 10847 10854 10861 10870 10877 10883 10892 10900 10908 10915 10919 10922 10926 10934 10942 10951 10958 10957 10955 10957 10959 10963 10968 10973 10978 10982 10984 10986 10991 10999 11006 11010 11013 11014 11012 11012 11013 11014 11012 11013 11015 11015 11015 11015 11015 11016 11018 11019 11019 11019 11019 11020 11021 11021 11022 11023 11023 11023 11024 11024 11024 11025 11025 11025 11026 11026 11027 11028 11028 11028
10745 10753 10762 10768 10773 10781 10789 10793 10800 10806 10809 10813 10816 10818 10822 10829 10838 10846 10854 10862 10869 10876 10884 10892 10900 10907 10912 10916 10922 10928 10934 10944 10950 10947 10945 10949 10953 10957 10963 10968 10972 10975 10977 10981 10987 10997 11005 11008 11009 11008 11007 11009 11010 11010 11009 11010 11011 11012 11013 11012 11012 11014 11017 11018 11018 11018 11019 11019 11020 11020 11021 11021 11022 11022 11023 11024 11024 11024 11024 11025 11025 11025 11026 11027 11027 11028
10736 10741 10748 10756 10763 10773 10781 10787 10794 10800 10803 10808 10811 10811 10814 10820 10828 10837 10844 10851 10859 10869 10878 10886 10894 10900 10906 10913 10919 10923 10928 10938 10943 10938 10936 10942 10947 10951 10956 10961 10965 10967 10971 10977 10984 10993 11000 11001 11002 11005 11008 11010 11009 11009 11010 11011 11010 11010 11011 11010 11010 11012 11014 11016 11017 11017 11018 11019 11019 11020 11020 11020 11020 11021 11021 11022 11023 11023 11023 11024 11024 11024 11024 11025 11026 11026
10725 10729 10736 10747 10755 10763 10772 10779 10785 10790 10796 10801 10803 10806 10809 10812 10818 10825 10831 10839 10850 10861 10871 10879 10886 10892 10900 10908 10912 10916 10922 10930 10936 10935 10933 10936 10940 10944 10949 10954 10958 10961 10965 10972 10979 10989 10996 10996 10996 11001 11006 11007 11007 11008 11011 11011 11009 11008 11008 11007 11008 11010 11011 11014 11015 11016 11017 11017 11018 11018 11019 11019 11020 11020 11020 11021 11021 11022 11022 11022 11022 11022 11022 11022 11023 11024
10716 10721 10729 10739 10747 10753 10760 10766 10770 10775 10782 10786 10788 10794 10797 10800 10806 10814 10821 10830 10841 10854 10863 10870 10877 10884 10892 10900 10903 10907 10915 10923 10929 10931 10930 10929 10930 10935 10941 10947 10951 10955 10960 10966 10974 10985 10992 10990 10988 10993 11000 11003 11004 11005 11008 11008 11006 11003 11003 11005 11007 11007 11008 11011 11012 11014 11015 11015 11016 11016 11016 11017 11018 11019 11020 11020 11020 11020 11020 11020 11020 11020 11020 11020 11020 11021
10708 10715 10721 10729 10736 10741 10747 10752 10754 10761 10768 10771 10774 10779 10783 10789 10798 10807 10814 10821 10831 10842 10851 10860 10869 10876 10883 10890 10894 10899 10908 10915 10919 10921 10919 10917 10919 10925 10932 10939 10944 10949 10954 10960 10967 10976 10983 10984 10983 10987 10995 10998 10998 10998 11002 11003 11000 10999 11001 11004 11006 11007 11006 11007 11009 11011 11013 11013 11013 11013 11012 11013 11015 11018 11019 11019 11018 11018 11019 11019 11019 11019 11019 11019 11019 11019
10699 10706 10712 10719 10725 10730 10735 10739 10743 10750 10756 10760 10763 10767 10772 10780 10789 10797 10805 10812 10822 10836 10845 10853 10862 10869 10874 10880 10887 10894 10900 10905 10908 10909 10909 10910 10914 10919 10926 10932 10937 10942 10947 10953 10959 10966 10972 10976 10978 10982 10988 10992 10991 10992 10995 10998 10998 10998 11000 11002 11004 11006 11005 11004 11006 11008 11009 11010 11011 11011 11010 11011 11014 11016 11017 11017 11017 11017 11017 11017 11018 11018 11018 11018 11018 11018
10690 10696 10702 10709 10714 10719 10724 10730 10737 10744 10749 10753 10757 10760 10765 10772 10780 10789 10798 10806 10818 10832 10841 10847 10856 10864 10868 10873 10881 10888 10893 10898 10899 10898 10899 10903 10909 10914 10919 10923 10929 10934 10940 10946 10951 10956 10962 10968 10972 10976 10981 10985 10986 10988 10992 10996 10997 10997 10998 10999 11001 11003 11004 11004 11006 11007 11007 11007 11009 11010 11010 11011 11013 11014 11014 11015 11015 11015 11016 11016 11017 11017 11017 11017 11017 11017
10680 10686 10693 10700 10705 10710 10716 10723 10730 10735 10740 10745 10748 10751 10757 10765 10773 10784 10793 10800 10811 10822 10830 10840 10852 10859 10862 10866 10874 10880 10884 10889 10891 10890 10892 10897 10902 10907 10910 10915 10920 10925 10931 10937 10943 10949 10954 10960 10964 10969 10974 10978 10981 10984 10989 10992 10994 10995 10997 10998 10998 11000 11002 11003 11004 11005 11006 11006 11007 11008 11009 11010 11011 11011 11011 11013 11013 11013 11013 11014 11015 11016 11016 11016 11016 11016
10671 10678 10686 10692 10698 10703 10710 10717 10722 10726 10731 10735 10739 10743 10751 10758 10766 10775 10784 10791 10801 10810 10819 10831 10843 10850 10856 10861 10866 10872 10876 10880 10883 10885 10887 10890 10894 10898 10903 10907 10912 10917 10923 10929 10935 10941 10946 10951 10957 10962 10967 10972 10976 10981 10984 10986 10990 10994 10996 10996 10996 10998 11000 11000 11001 11002 11004 11005 11005 11005 11006 11007 11008 11008 11008 11010 11011 11010 11011 11012 11013 11014 11014 11014 11014 11014
10665 10672 10679 10685 10689 10695 10703 10710 10715 10720 10724 10726 10731 10737 10743 10747 10754 10764 10773 10781 10791 10800 10811 10824 10834 10841 10849 10855 10860 10865 10868 10872 10875 10875 10876 10880 10886 10891 10896 10902 10906 10910 10916 10922 10928 10934 10939 10944 10950 10955 10960 10965 10970 10975 10978 10980 10986 10991 10993 10992 10992 10993 10995 10997 10998 11000 11003 11005 11004 11004 11004 11004 11005 11005 11005 11007 11008 11008 11008 11009 11010 11011 11012 11013 11013 11012
10659 10666 10673 10679 10683 10688 10695 10702 10707 10713 10715 10717 10722 10727 10731 10736 10744 10754 10766 10777 10786 10794 10804 10816 10825 10832 10841 10848 10853 10857 10861 10864 10865 10863 10864 10872 10880 10885 10890 10896 10901 10904 10909 10915 10921 10927 10932 10938 10943 10947 10952 10957 10962 10966 10969 10973 10977 10981 10984 10985 10987 10989 10991 10992 10995 10998 11001 11003 11002 11002 11001 11000 11001 11001 11001 11003 11005 11005 11006 11006 11007 11008 11010 11010 11010 11010
10653 10660 10667 10673 10677 10682 10689 10695 10698 10703 10705 10708 10712 10716 10720 10727 10736 10746 10759 10771 10780 10787 10797 10807 10815 10823 10833 10841 10846 10850 10853 10855 10853 10852 10856 10864 10873 10879 10883 10888 10893 10898 10902 10908 10914 10920 10926 10931 10936 10940 10945 10950 10954 10958 10961 10965 10968 10970 10974 10978 10982 10986 10986 10985 10990 10995 10996 10996 10997 10998 10997 10996 10996 10997 10998 10999 11001 11002 11003 11003 11004 11005 11006 11007 11007 11007
10648 10655 10661 10666 10670 10675 10682 10687 10690 10694 10697 10700 10702 10705 10711 10719 10727 10738 10751 10762 10770 10778 10786 10795 10805 10814 10824 10832 10839 10843 10845 10843 10842 10844 10849 10856 10864 10871 10875 10880 10885 10891 10896 10902 10907 10913 10919 10924 10929 10933 10937 10942 10946 10950 10954 10957 10960 10963 10968 10972 10978 10982 10980 10979 10985 10989 10988 10989 10992 10993 10992 10991 10992 10993 10994 10995 10997 10999 10999 10999 11000 11001 11002 11003 11004 11004
10641 10649 10655 10660 10664 10667 10672 10677 10683 10686 10688 10690 10693 10698 10706 10714 10720 10730 10741 10751 10760 10769 10776 10785 10795 10805 10814 10823 10830 10834 10835 10832 10833 10837 10842 10849 10856 10862 10867 10872 10877 10883 10889 10895 10900 10906 10911 10915 10920 10925 10929 10933 10938 10942 10945 10949 10952 10957 10962 10967 10972 10975 10974 10974 10980 10983 10982 10985 10988 10988 10986 10986 10986 10987 10989 10990 10992 10994 10994 10995 10996 10997 10998 10999 11000 11000
10633 10640 10647 10652 10655 10658 10662 10669 10673 10673 10676 10682 10687 10691 10699 10707 10712 10722 10733 10742 10752 10761 10768 10776 10785 10793 10802 10811 10818 10823 10824 10823 10824 10828 10833 10840 10847 10852 10857 10863 10868 10873 10879 10886 10892 10898 10903 10906 10911 10915 10919 10924 10928 10932 10936 10940 10944 10949 10954 10958 10963 10966 10967 10969 10973 10976 10976 10979 10981 10980 10979 10979 10981 10982 10984 10985 10987 10988 10990 10991 10992 10993 10994 10994 10995 10996
10624 10631 10638 10642 10644 10647 10653 10660 10662 10663 10669 10676 10679 10682 10690 10698 10702 10711 10723 10732 10743 10753 10761 10768 10776 10783 10792 10800 10805 10808 10810 10811 10813 10816 10822 10829 10836 10841 10846 10852 10858 10863 10868 10875 10881 10888 10893 10897 10901 10905 10909 10914 10918 10922 10926 10931 10936 10940 10944 10949 10954 10958 10960 10962 10965 10967 10968 10968 10970 10971 10973 10974 10976 10977 10979 10981 10982 10984 10986 10986 10987 10988 10989 10990 10991 10992
10616 10623 10630 10634 10635 10638 10644 10649 10652 10658 10666 10669 10670 10674 10682 10690 10693 10699 10709 10721 10735 10747 10754 10758 10765 10774 10782 10789 10792 10796 10800 10803 10806 10809 10813 10818 10823 10829 10835 10840 10846 10852 10857 10863 10869 10876 10882 10888 10892 10895 10899 10903 10907 10911 10916 10921 10927 10931 10935 10940 10945 10949 10952 10955 10957 10958 10959 10960 10962 10965 10968 10969 10971 10973 10976 10978 10980 10981 10982 10982 10983 10984 10985 10985 10986 10987
10610 10615 10621 10626 10628 10632 10637 10641 10646 10653 10659 10662 10664 10669 10675 10681 10686 10691 10698 10710 10726 10738 10743 10748 10755 10765 10773 10776 10779 10784 10791 10794 10797 10799 10802 10805 10810 10816 10822 10828 10834 10840 10845 10851 10858 10864 10871 10877 10881 10885 10889 10892 10897 10902 10907 10912 10918 10923 10927 10931 10935 10939 10943 10946 10949 10950 10952 10953 10956 10959 10962 10964 10966 10968 10971 10974 10975 10977 10978 10978 10978 10979 10980 10981 10982 10983
10604 10608 10613 10617 10621 10624 10629 10634 10640 10647 10653 10657 10661 10663 10668 10673 10679 10685 10691 10701 10716 10728 10734 10739 10746 10753 10758 10761 10764 10770 10775 10777 10779 10784 10789 10794 10799 10804 10810 10816 10822 10827 10833 10839 10845 10852 10858 10865 10871 10875 10878 10882 10887 10893 10898 10903 10908 10914 10918 10922 10926 10930 10933 10937 10940 10942 10944 10946 10949 10952 10955 10957 10960 10961 10963 10965 10967 10971 10973 10974 10974 10975 10976 10976 10977 10978
10599 10602 10605 10609 10613 10617 10621 10627 10634 10641 10648 10653 10655 10655 10657 10662 10670 10679 10684 10691 10705 10718 10723 10726 10728 10731 10735 10740 10747 10754 10759 10762 10767 10775 10782 10786 10789 10792 10797 10801 10807 10812 10818 10825 10831 10838 10845 10852 10860 10865 10868 10872 10878 10884 10889 10893 10897 10903 10909 10913 10918 10921 10924 10928 10931 10933 10936 10938 10941 10944 10947 10950 10952 10954 10955 10957 10960 10964 10967 10969 10970 10971 10971 10971 10971 10973
10593 10596 10599 10602 10605 10610 10615 10621 10629 10635 10640 10646 10647 10644 10645 10651 10660 10668 10673 10680 10693 10705 10710 10711 10712 10713 10716 10724 10732 10738 10745 10751 10759 10767 10773 10775 10777 10780 10782 10785 10790 10797 10804 10811 10817 10824 10832 10840 10848 10855 10859 10863 10869 10874 10879 10883 10888 10893 10898 10904 10909 10913 10916 10918 10921 10924 10927 10930 10933 10936 10939 10941 10944 10946 10948 10951 10953 10956 10960 10962 10963 10964 10965 10965 10966 10968
10588 10590 10593 10596 10600 10604 10609 10614 10621 10628 10632 10635 10635 10634 10636 10643 10649 10654 10660 10670 10681 10689 10693 10697 10699 10699 10703 10712 10722 10728 10734 10743 10750 10756 10759 10762 10765 10768 10771 10773 10779 10786 10794 10800 10806 10813 10820 10828 10837 10845 10849 10853 10859 10864 10869 10873 10878 10883 10887 10893 10898 10902 10905 10909 10912 10916 10919 10922 10925 10927 10930 10932 10935 10938 10941 10944 10946 10949 10952 10954 10956 10958 10959 10959 10961 10962
10583 10585 10588 10590 10594 10598 10602 10607 10613 10618 10622 10623 10624 10625 10627 10632 10635 10640 10649 10659 10666 10671 10677 10682 10685 10687 10692 10702 10713 10720 10727 10734 10740 10744 10747 10750 10753 10756 10759 10762 10767 10774 10782 10790 10795 10802 10810 10818 10826 10833 10838 10842 10848 10854 10860 10864 10868 10872 10877 10882 10887 10891 10894 10899 10903 10907 10910 10913 10915 10918 10921 10924 10927 10930 10933 10936 10939 10942 10944 10946 10949 10950 10952 10954 10955 10956
10578 10580 10582 10584 10587 10591 10595 10599 10603 10607 10610 10612 10614 10616 10618 10621 10624 10631 10639 10646 10652 10658 10665 10670 10675 10679 10685 10692 10702 10711 10718 10724 10729 10732 10735 10737 10740 10743 10745 10750 10756 10764 10772 10779 10786 10793 10800 10807 10814 10820 10825 10830 10837 10844 10850 10853 10857 10861 10866 10871 10876 10879 10883 10889 10894 10898 10901 10904 10906 10909 10912 10915 10918 10921 10925 10928 10931 10934 10936 10938 10940 10942 10944 10946 10948 10950
10573 10574 10576 10578 10580 10583 10587 10590 10593 10596 10599 10602 10604 10607 10609 10612 10615 10621 10628 10633 10639 10647 10654 10660 10665 10671 10677 10683 10691 10699 10705 10711 10716 10719 10721 10723 10726 10730 10735 10741 10748 10755 10761 10766 10773 10780 10788 10796 10802 10807 10811 10818 10825 10833 10838 10842 10847 10851 10856 10861 10865 10869 10873 10878 10883 10887 10891 10894 10897 10900 10904 10906 10909 10913 10916 10919 10921 10924 10926 10928 10931 10933 10935 10937 10940 10942
10568 10569 10570 10572 10574 10576 10578 10582 10585 10587 10590 10594 10597 10600 10602 10605 10608 10613 10618 10623 10627 10634 10642 10649 10655 10660 10665 10671 10678 10685 10691 10696 10701 10705 10707 10710 10714 10720 10726 10732 10737 10742 10747 10753 10759 10767 10777 10785 10790 10795 10799 10805 10813 10821 10827 10832 10837 10842 10846 10850 10854 10857 10861 10866 10871 10876 10880 10884 10888 10891 10894 10898 10901 10904 10906 10909 10911 10914 10916 10919 10922 10924 10926 10929 10932 10935
10562 10562 10564 10566 10568 10569 10572 10575 10578 10580 10582 10585 10588 10590 10593 10596 10600 10605 10609 10613 10617 10622 10630 10639 10645 10649 10653 10658 10664 10670 10676 10682 10688 10693 10696 10700 10704 10710 10715 10720 10725 10730 10736 10741 10746 10754 10763 10771 10777 10782 10788 10793 10801 10809 10815 10820 10826 10830 10834 10837 10841 10845 10849 10854 10860 10864 10868 10873 10878 10881 10885 10888 10891 10893 10896 10898 10901 10904 10907 10910 10912 10915 10917 10920 10923 10926
10555 10556 10558 10560 10560 10562 10564 10567 10570 10572 10574 10576 10579 10582 10584 10586 10589 10593 10597 10600 10603 10608 10615 10625 10632 10636 10640 10644 10650 10656 10662 10669 10675 10680 10684 10688 10693 10699 10705 10710 10714 10718 10722 10726 10731 10738 10746 10755 10763 10770 10776 10781 10787 10793 10799 10805 10811 10816 10820 10825 10830 10834 10839 10844 10848 10852 10856 10861 10866 10870 10874 10877 10880 10883 10885 10888 10891 10894 10897 10900 10903 10905 10908 10911 10914 10917
10549 10549 10551 10552 10552 10554 10557 10559 10561 10564 10567 10568 10570 10573 10576 10578 10581 10584 10586 10589 10591 10594 10600 10608 10616 10621 10626 10631 10637 10643 10649 10656 10661 10666 10671 10677 10683 10689 10695 10699 10701 10703 10707 10711 10717 10724 10732 10741 10750 10757 10763 10768 10772 10777 10783 10789 10796 10802 10808 10813 10818 10823 10828 10832 10836 10839 10843 10848 10852 10857 10861 10864 10868 10872 10875 10877 10880 10883 10886 10890 10893 10896 10899 10901 10904 10908
10542 10542 10543 10544 10544 10546 10548 10550 10552 10555 10558 10560 10562 10563 10566 10569 10572 10574 10576 10579 10581 10583 10588 10594 10601 10607 10613 10619 10624 10630 10636 10642 10648 10654 10660 10667 10672 10677 10681 10683 10685 10689 10695 10700 10704 10710 10718 10727 10736 10743 10749 10753 10756 10761 10768 10774 10781 10788 10795 10801 10806 10811 10815 10819 10822 10826 10830 10834 10838 10843 10847 10851 10855 10860 10864 10867 10869 10872 10876 10880 10883 10886 10889 10892 10895 10898
10534 10535 10536 10536 10537 10538 10539 10540 10543 10545 10548 10551 10553 10554 10557 10560 10562 10564 10566 10569 10572 10575 10578 10582 10588 10594 10600 10605 10611 10617 10622 10628 10634 10641 10647 10653 10658 10662 10666 10669 10673 10679 10685 10689 10692 10697 10704 10712 10720 10726 10732 10737 10742 10748 10755 10762 10768 10775 10781 10787 10793 10797 10801 10805 10810 10813 10817 10821 10824 10828 10833 10837 10842 10847 10851 10855 10859 10862 10865 10869 10872 10875 10878 10881 10884 10887